Reflectivity
14 12 13 4 8 9 14 -20 -20 -20 -20 -20 -20 -20 -20 -20 -20 -20 -20 -20 14 16 14 14 15 7 16 18 12 -20 15 13 7
11 10 12 -5 10 6 5 -17 -20 -20 -20 -20 -20 -20 -20 -20 -20 -20 -20 4 14 13 14 17 18 13 16 14 4 14 17 15 14
11 8 13 8 -1 9 12 17 -20 -20 -20 -20 -20 -20 -20 -20 -20 -20 -20 -6 -2 -15 10 11 17 14 15 14 15 17 16 16 16
-15 -18 -0 10 12 1 1 6 -1 -20 -20 -20 -20 -20 -20 -20 -20 -20 -20 -15 1 1 16 12 15 10 16 18 7 15 13 17 11
-20 -20 -20 -8 13 9 4 -18 0 -19 -20 -20 -20 -20 -20 -20 -20 -20 -19 -6 17 6 4 14 15 13 16 14 13 16 13 11 15
-20 -20 -20 -20 -19 11 12 -4 -15 9 -15 -20 -20 -20 -20 -20 -20 -20 -20 6 2 12 9 11 16 17 15 15 16 16 16 17 16
-20 -20 -20 -20 -20 -19 10 10 11 8 -20 -20 -20 -20 -20 -20 -20 -20 -9 16 5 13 12 10 11 -1 18 12 12 15 16 15 15
-20 -20 -20 -20 -20 -20 -20 -15 -16 6 -7 -2 -11 -19 -20 -20 -20 -20 -20 10 10 -2 12 12 12 7 12 14 14 10 13 14 13
-20 -20 -20 -20 -20 -20 -20 -20 -20 -20 13 -9 4 -9 10 -20 -20 -20 -20 7 16 12 13 16 16 12 11 7 13 12 12 14 14
-20 -20 -20 -20 -20 -20 -20 -20 -20 -20 -20 -5 11 -9 -11 13 -20 -20 -20 -20 -20 -8 14 14 13 11 12 10 9 12 15 15 11
-20 -20 -20 -20 -20 -20 -20 -20 -20 -20 -20 -19 7 10 7 -5 -2 -20 -20 -20 -20 -8 11 7 14 10 15 12 11 7 15 15 14
-20 -20 -20 -20 -20 -20 -20 -20 -20 -20 -20 -20 -20 -16 23 4 26 -20 -2 -1 -20 -20 -20 12 15 8 9 7 9 5 -13 8 12
-20 -20 -20 -20 -20 -20 -20 -20 -20 -20 -20 -20 -20 -6 -20 20 28 2 18 7 -1 -20 2 -20 -7 14 10 3 -3 -9 -20 -20 6
-20 -20 -20 -20 -20 -20 -20 -20 -20 -20 -20 -20 -2 -14 -20 -15 -12 30 13 26 23 12 13 -20 -20 -3 11 16 7 4 -13 4 -8
-20 -20 -20 -20 -20 -20 -20 -20 -20 -20 -20 -20 -19 -16 -1 -18 -4 11 18 17 28 20 8 11 -4 10 4 2 -12 -14 -10 21 15
-20 -20 -20 -20 -20 -20 -20 -20 -20 -20 -20 -20 -20 -10 -15 -6 -6 -10 -20 22 26 14 10 26 20 13 -18 -20 12 -16 -20 -20 12
-20 -20 -20 -20 -20 -20 -20 -20 -20 -20 -20 -20 -20 6 -5 -13 -9 5 -11 -2 22 28 17 29 26 5 -17 -20 7 -1 -20 -20 -20
-20 -20 -20 -20 -20 -20 -20 -20 -20 -20 -20 -20 -14 -20 -15 -14 10 -20 -5 -14 -3 16 16 11 18 27 25 13 21 -7 -16 -20 -20
-20 -20 -20 -20 -20 -20 -20 -20 -20 -20 -20 -20 -20 -5 -16 -17 -20 -20 -3 0 -10 3 6 18 -17 -11 9 2 23 22 8 -20 -20
-20 -20 -20 -20 -20 -20 -20 -20 -20 -20 -20 -20 -20 -20 2 -20 -20 -5 -20 -20 -20 -20 -20 -10 10 -3 -4 0 -4 10 -5 9 -3
Wind_Speed
21 22 21 20 20 16 7 8 7 8 9 10 9 8 10 13 9 9 13 10 10 12 12 12 13 13 14 14 17 16 15 16 17
20 22 20 19 20 19 15 4 7 7 8 9 8 7 9 9 8 10 9 8 12 12 11 12 14 14 14 13 14 14 15 15 15
18 20 20 20 18 18 17 14 5 5 6 7 6 5 9 6 7 11 8 7 11 12 10 13 12 12 12 14 15 15 15 15 14
17 18 20 21 20 18 17 16 11 4 4 5 5 4 9 6 5 6 7 3 9 11 14 13 11 13 12 14 14 14 14 14 14
14 17 18 20 20 19 17 17 16 3 3 5 4 2 9 5 3 8 6 10 12 12 11 9 11 12 13 13 14 15 12 15 13
11 12 15 17 17 20 19 17 17 14 5 3 2 5 2 5 3 7 7 8 11 8 10 11 12 12 12 13 14 14 13 13 13
9 7 11 14 17 15 19 18 16 13 7 2 4 5 2 3 3 7 6 7 10 12 13 10 9 10 12 13 13 13 12 12 13
7 6 7 8 11 8 10 10 7 8 6 6 6 5 1 1 2 8 6 4 10 8 9 7 10 11 12 12 12 12 13 12 12
7 6 8 7 6 9 8 5 6 8 6 6 8 8 3 2 1 8 7 3 8 8 9 9 8 10 10 12 10 9 10 10 10
7 7 7 7 7 7 7 7 6 4 5 4 5 7 7 6 1 5 8 5 5 8 8 7 7 9 8 9 9 8 8 9 9
7 7 7 8 8 7 6 7 6 5 2 2 5 4 7 8 3 2 6 6 6 8 7 6 6 7 6 8 8 7 7 8 8
8 7 7 8 7 9 8 7 7 6 7 7 4 4 4 6 8 4 4 6 7 6 7 7 5 6 5 6 5 5 6 5 7
7 7 7 8 7 7 7 7 7 6 6 7 8 5 2 3 6 5 7 2 6 5 8 5 5 5 2 1 3 2 3 5 3
7 7 7 8 7 7 8 7 7 7 8 6 6 5 4 3 3 4 6 7 6 5 6 6 5 4 2 3 1 2 4 4 3
7 6 8 7 6 7 8 8 8 9 9 5 4 4 4 4 4 4 4 6 7 8 7 3 4 4 2 2 4 6 7 3 6
8 7 7 7 8 9 10 8 8 8 10 4 4 6 7 7 5 5 5 6 4 7 6 5 5 3 0 2 4 6 11 10 5
7 7 7 8 7 10 10 11 7 7 9 5 2 1 5 7 7 7 7 8 6 6 5 3 3 4 4 6 10 9 9 10 12
7 7 7 7 7 7 8 8 10 6 6 9 5 3 4 4 4 6 6 5 5 5 7 7 7 6 3 4 6 10 12 15 14
7 7 7 7 6 7 7 7 7 7 7 3 6 5 4 3 3 3 3 3 5 5 3 5 5 7 5 9 11 14 14 16 16
7 7 7 7 6 7 8 8 9 7 6 6 4 3 2 6 3 3 5 4 4 6 4 3 6 7 8 8 12 19 19 16 16
Wind_Direction
30 32 28 25 24 31 51 81 85 90 83 76 58 29 351 310 49 76 63 63 70 70 73 71 71 78 79 75 76 79 76 72 70
29 30 30 26 24 25 23 64 74 102 85 73 57 19 343 27 40 74 77 70 74 74 61 70 68 72 71 74 79 74 72 69 67
29 29 29 31 26 25 24 22 90 93 94 85 69 12 333 53 52 64 74 69 80 74 81 73 62 65 74 73 68 71 64 65 64
29 28 25 28 29 27 25 21 8 111 104 103 79 4 321 21 51 82 89 34 80 81 81 70 64 68 68 69 71 67 61 61 62
35 25 24 25 28 27 27 26 17 341 77 118 115 283 278 55 71 70 86 81 85 87 74 67 66 67 68 67 68 67 53 60 47
18 24 20 27 26 26 26 29 24 12 26 116 151 270 315 45 34 76 94 84 81 73 76 72 66 61 68 65 61 59 57 51 45
3 13 15 27 7 37 24 23 25 22 355 340 178 252 49 48 43 87 82 92 90 79 78 74 73 68 62 63 57 50 52 48 41
11 9 11 10 6 17 26 16 17 15 7 337 321 313 337 26 87 104 56 103 102 84 76 77 77 71 66 57 60 53 50 47 38
10 14 10 10 5 4 6 20 1 8 8 357 325 331 315 290 92 118 83 59 111 94 99 78 84 80 78 74 59 47 49 49 39
6 8 12 13 7 7 352 359 4 347 2 4 354 317 331 313 129 114 110 81 114 117 114 107 96 90 81 86 74 49 45 46 38
6 5 12 10 9 357 350 354 348 2 37 356 13 357 316 334 313 136 133 106 71 117 113 105 106 99 92 99 95 66 33 32 24
3 9 10 4 2 1 357 1 353 6 350 22 52 43 337 343 338 345 133 139 123 130 123 113 105 100 110 122 121 117 96 47 17
12 12 12 355 3 7 2 5 7 358 353 356 26 28 25 21 339 7 1 40 141 139 132 107 102 124 72 109 169 170 151 135 74
14 16 10 0 8 13 6 1 14 360 3 346 36 25 47 35 28 3 34 10 355 97 121 110 100 133 82 59 22 285 227 217 159
16 17 16 9 17 22 13 11 356 22 356 357 48 45 44 53 46 36 34 22 16 13 34 53 122 161 135 62 10 3 31 317 289
16 22 13 9 24 21 17 6 19 24 0 4 3 101 77 51 34 38 32 38 14 42 39 9 12 24 150 334 341 345 337 328 332
33 24 21 21 18 27 26 22 15 22 25 10 294 33 108 85 60 45 37 32 21 27 32 26 10 7 6 8 344 313 305 316 328
33 33 30 30 27 29 30 25 27 22 35 45 20 15 24 324 89 69 52 38 36 29 20 7 353 359 360 15 334 334 323 311 305
38 39 37 36 37 36 29 30 33 27 34 42 29 29 17 14 350 36 35 17 28 18 25 15 12 15 18 3 348 340 326 311 298
51 42 40 40 38 39 36 35 34 40 48 47 3 23 352 13 356 329 8 330 1 2 12 21 21 24 22 24 5 358 349 338 315